DLH648 EDDF-UAAA

Flight info

Callsign DLH648
Flight time N/A
Altitude 35000
Route CINDY2D CINDY Z74 HAREM DCT ASLEP DCT TAKUT L603 BESNI L605 MIQ DCT ALUTU DCT BIBAG Q104 AKIMA DCT ARSIN DCT GAZDA DCT TEGRI DCT DINRO N743 UDROS/N0468F370 DCT CRM DCT ROLIN DCT TAGAR DCT BT DCT BARAD M747 LUSAL N199 RASAM L88 METKA B476 TIMGA A480 OTBOR/K0874F370 N147 GENKU/K0865F390 N147 ELAHA Z621 ARBOL M610 TIPSA TIPSA1D
Aircraft A343/H-SDE2E3FGHIJ4J5M1RWXY/LB1D1

Departure

Time 2026-05-07 20:50
Airport Frankfurt Main Airport (EDDF)

Arrival

Time N/A
Airport Almaty International Airport (UAAA)
Time Latitude Longitude Altitude Speed Heading
2026-05-07 20:15 50.04754 8.56390 360 ft 0 kts 340°
2026-05-07 20:31 50.04736 8.56400 366 ft 4 kts 337°
2026-05-07 20:31 50.04711 8.56418 367 ft 4 kts 331°
2026-05-07 20:31 50.04689 8.56440 368 ft 4 kts 319°
2026-05-07 20:32 50.04672 8.56468 368 ft 2 kts 296°
2026-05-07 20:32 50.04662 8.56496 368 ft 4 kts 326°
2026-05-07 20:32 50.04640 8.56503 365 ft 3 kts 23°
2026-05-07 20:32 50.04646 8.56502 366 ft 4 kts 359°
2026-05-07 20:33 50.04663 8.56479 368 ft 4 kts 302°
2026-05-07 20:33 50.04667 8.56440 367 ft 4 kts 265°
2026-05-07 20:33 50.04659 8.56400 366 ft 4 kts 251°
2026-05-07 20:33 50.04650 8.56361 366 ft 4 kts 249°
2026-05-07 20:34 50.04640 8.56321 367 ft 4 kts 249°
2026-05-07 20:34 50.04631 8.56282 366 ft 4 kts 249°
2026-05-07 20:34 50.04621 8.56243 363 ft 4 kts 249°
2026-05-07 20:34 50.04612 8.56204 367 ft 4 kts 249°
2026-05-07 20:35 50.04602 8.56164 364 ft 4 kts 249°
2026-05-07 20:35 50.04593 8.56125 366 ft 4 kts 249°
2026-05-07 20:35 50.04583 8.56086 367 ft 4 kts 249°
2026-05-07 20:35 50.04580 8.56072 365 ft 0 kts 250°
2026-05-07 20:38 50.04580 8.56071 365 ft 0 kts 250°
2026-05-07 20:38 50.04574 8.56049 365 ft 7 kts 250°
2026-05-07 20:38 50.04527 8.55954 368 ft 13 kts 210°
2026-05-07 20:38 50.04479 8.55935 363 ft 6 kts 193°
2026-05-07 20:39 50.04431 8.55916 366 ft 9 kts 194°
2026-05-07 20:39 50.04364 8.55920 364 ft 7 kts 168°
2026-05-07 20:39 50.04334 8.55935 363 ft 0 kts 159°
2026-05-07 20:44 50.04333 8.55936 364 ft 1 kts 159°
2026-05-07 20:44 50.04302 8.55953 363 ft 9 kts 161°
2026-05-07 20:45 50.04231 8.55926 364 ft 14 kts 209°
2026-05-07 20:45 50.04138 8.55948 364 ft 15 kts 156°
2026-05-07 20:45 50.04044 8.55934 362 ft 13 kts 232°
2026-05-07 20:45 50.04008 8.55785 362 ft 18 kts 249°
2026-05-07 20:46 50.03958 8.55573 357 ft 24 kts 250°
2026-05-07 20:46 50.03900 8.55329 360 ft 24 kts 249°
2026-05-07 20:46 50.03843 8.55092 355 ft 23 kts 249°
2026-05-07 20:46 50.03786 8.54860 358 ft 23 kts 250°
2026-05-07 20:47 50.03732 8.54629 357 ft 23 kts 250°
2026-05-07 20:47 50.03682 8.54418 354 ft 14 kts 250°
2026-05-07 20:47 50.03630 8.54307 349 ft 10 kts 197°
2026-05-07 20:47 50.03577 8.54330 355 ft 8 kts 159°
2026-05-07 20:48 50.03526 8.54359 352 ft 7 kts 160°
2026-05-07 20:48 50.03493 8.54409 354 ft 6 kts 101°
2026-05-07 20:48 50.03496 8.54427 357 ft 2 kts 76°
2026-05-07 20:48 50.03499 8.54443 357 ft 0 kts 73°
2026-05-07 20:49 50.03502 8.54457 352 ft 12 kts 73°
2026-05-07 20:49 50.03586 8.54846 352 ft 63 kts 70°
2026-05-07 20:49 50.03798 8.55692 361 ft 104 kts 70°
2026-05-07 20:50 50.04093 8.56936 373 ft 139 kts 70°
2026-05-07 20:50 50.04472 8.58504 400 ft 166 kts 69°
2026-05-07 20:50 50.04859 8.60100 994 ft 153 kts 68°
2026-05-07 20:50 50.05244 8.61732 1179 ft 170 kts 72°
2026-05-07 20:51 50.05601 8.63527 1561 ft 178 kts 72°
2026-05-07 20:51 50.05981 8.65456 1799 ft 196 kts 72°
2026-05-07 20:51 50.06373 8.67581 2092 ft 212 kts 78°
2026-05-07 20:51 50.06335 8.69917 2581 ft 222 kts 102°
2026-05-07 20:52 50.05828 8.72297 2906 ft 243 kts 116°
2026-05-07 20:52 50.04808 8.74472 3396 ft 255 kts 131°
2026-05-07 20:52 50.03564 8.76493 4018 ft 261 kts 134°
2026-05-07 20:52 50.02256 8.78492 4659 ft 267 kts 135°
2026-05-07 20:53 50.00903 8.80515 5266 ft 273 kts 136°
2026-05-07 20:53 49.99520 8.82563 5946 ft 276 kts 136°
2026-05-07 20:53 49.98131 8.84606 6588 ft 279 kts 137°
2026-05-07 20:53 49.96710 8.86693 7242 ft 282 kts 137°
2026-05-07 20:54 49.95260 8.88819 7903 ft 284 kts 137°
2026-05-07 20:54 49.93815 8.90934 8546 ft 287 kts 137°
2026-05-07 20:54 49.92354 8.93068 9181 ft 290 kts 137°
2026-05-07 20:54 49.90880 8.95222 9799 ft 292 kts 137°
2026-05-07 20:55 49.89385 8.97402 10321 ft 298 kts 137°
2026-05-07 20:55 49.87836 8.99659 10552 ft 313 kts 137°
2026-05-07 20:55 49.86211 9.02022 10769 ft 327 kts 137°
2026-05-07 20:55 49.84508 9.04496 10983 ft 342 kts 137°
2026-05-07 20:56 49.82761 9.07034 11194 ft 355 kts 138°
2026-05-07 20:56 49.80925 9.09698 11391 ft 369 kts 138°
2026-05-07 20:56 49.79029 9.12447 11720 ft 377 kts 138°
2026-05-07 20:56 49.77077 9.15275 12228 ft 381 kts 138°
2026-05-07 20:57 49.75167 9.18060 12752 ft 384 kts 136°
2026-05-07 20:57 49.73274 9.21079 13291 ft 387 kts 134°
2026-05-07 20:57 49.71465 9.24196 13850 ft 391 kts 132°
2026-05-07 20:57 49.69705 9.27342 14328 ft 394 kts 131°
2026-05-07 20:58 49.67893 9.30614 14822 ft 397 kts 131°
2026-05-07 20:58 49.66091 9.33861 15292 ft 400 kts 131°
2026-05-07 20:58 49.64292 9.37080 15768 ft 403 kts 132°
2026-05-07 20:58 49.62577 9.40522 16226 ft 407 kts 123°
2026-05-07 20:59 49.61291 9.44428 16706 ft 410 kts 114°
2026-05-07 20:59 49.60227 9.48533 17134 ft 414 kts 111°
2026-05-07 20:59 49.59268 9.52750 17507 ft 419 kts 109°
2026-05-07 20:59 49.58363 9.57036 17958 ft 422 kts 108°
2026-05-07 21:00 49.57762 9.59945 18264 ft 423 kts 108°
2026-05-07 21:00 49.56864 9.64285 18651 ft 426 kts 108°
2026-05-07 21:00 49.55952 9.68646 19016 ft 429 kts 109°
2026-05-07 21:00 49.55022 9.73024 19393 ft 431 kts 109°
2026-05-07 21:01 49.54076 9.77424 19807 ft 434 kts 109°
2026-05-07 21:01 49.52961 9.81744 20189 ft 435 kts 117°
2026-05-07 21:01 49.51391 9.85737 20582 ft 436 kts 125°
2026-05-07 21:01 49.49608 9.89526 20943 ft 438 kts 128°
2026-05-07 21:02 49.47718 9.93225 21258 ft 442 kts 130°
2026-05-07 21:02 49.45764 9.96893 21633 ft 444 kts 130°
2026-05-07 21:02 49.43789 10.00551 22009 ft 446 kts 131°
2026-05-07 21:02 49.41804 10.04226 22357 ft 448 kts 130°
2026-05-07 21:03 49.39818 10.07920 22718 ft 450 kts 130°
2026-05-07 21:03 49.37825 10.11646 23062 ft 452 kts 130°
2026-05-07 21:03 49.35827 10.15401 23388 ft 454 kts 130°
2026-05-07 21:03 49.33824 10.19165 23724 ft 457 kts 130°
2026-05-07 21:04 49.31810 10.22947 23999 ft 459 kts 130°
2026-05-07 21:04 49.29788 10.26738 24275 ft 461 kts 130°
2026-05-07 21:04 49.27755 10.30547 24539 ft 463 kts 130°
2026-05-07 21:04 49.25708 10.34373 24746 ft 467 kts 130°
2026-05-07 21:05 49.23580 10.38135 25024 ft 467 kts 135°
2026-05-07 21:05 49.21311 10.41703 25314 ft 468 kts 136°
2026-05-07 21:05 49.18998 10.45224 25585 ft 470 kts 137°
2026-05-07 21:05 49.16653 10.48725 25838 ft 472 kts 137°
2026-05-07 21:06 49.14292 10.52217 26108 ft 473 kts 137°
2026-05-07 21:06 49.11923 10.55716 26369 ft 475 kts 137°
2026-05-07 21:06 49.09543 10.59230 26619 ft 477 kts 137°
2026-05-07 21:06 49.07153 10.62754 26867 ft 478 kts 137°
2026-05-07 21:07 49.04758 10.66285 27122 ft 480 kts 137°
2026-05-07 21:07 49.02359 10.69821 27351 ft 481 kts 137°
2026-05-07 21:07 48.99939 10.73380 27535 ft 484 kts 137°
2026-05-07 21:07 48.97511 10.76943 27787 ft 486 kts 137°
2026-05-07 21:08 48.95073 10.80515 27996 ft 487 kts 137°
2026-05-07 21:08 48.92625 10.84099 28232 ft 489 kts 137°
2026-05-07 21:08 48.90175 10.87689 28439 ft 490 kts 137°
2026-05-07 21:08 48.87707 10.91303 28652 ft 492 kts 137°
2026-05-07 21:09 48.85239 10.94912 28855 ft 493 kts 137°
2026-05-07 21:09 48.82763 10.98526 29103 ft 494 kts 137°
2026-05-07 21:09 48.80291 11.02130 29523 ft 490 kts 138°
2026-05-07 21:09 48.77839 11.05700 29888 ft 489 kts 138°
2026-05-07 21:10 48.75381 11.09277 30105 ft 490 kts 138°
2026-05-07 21:10 48.72914 11.12849 30260 ft 491 kts 138°
2026-05-07 21:10 48.70440 11.16419 30485 ft 491 kts 138°
2026-05-07 21:10 48.67988 11.20020 30697 ft 491 kts 135°
2026-05-07 21:11 48.65787 11.23986 30901 ft 493 kts 127°
2026-05-07 21:11 48.63990 11.28413 31096 ft 495 kts 117°
2026-05-07 21:11 48.61515 11.38150 31527 ft 496 kts 109°
2026-05-07 21:12 48.60457 11.43105 31749 ft 495 kts 108°
2026-05-07 21:12 48.59428 11.48079 31912 ft 496 kts 108°
2026-05-07 21:12 48.58401 11.53060 32077 ft 497 kts 108°
2026-05-07 21:12 48.57381 11.58051 32252 ft 497 kts 106°
2026-05-07 21:13 48.56557 11.63123 32427 ft 498 kts 104°
2026-05-07 21:13 48.55786 11.68221 32603 ft 498 kts 103°
2026-05-07 21:13 48.55033 11.73337 32761 ft 499 kts 103°
2026-05-07 21:13 48.54289 11.78453 32917 ft 499 kts 103°
2026-05-07 21:14 48.53556 11.83509 33053 ft 500 kts 103°
2026-05-07 21:14 48.52800 11.88700 33186 ft 500 kts 103°
2026-05-07 21:14 48.52049 11.93827 33352 ft 501 kts 103°
2026-05-07 21:14 48.51293 11.98953 33522 ft 501 kts 103°
2026-05-07 21:15 48.50534 12.04082 33657 ft 501 kts 103°
2026-05-07 21:15 48.49780 12.09153 33815 ft 502 kts 103°
2026-05-07 21:15 48.49006 12.14349 33937 ft 502 kts 103°
2026-05-07 21:15 48.48236 12.19483 34064 ft 502 kts 104°
2026-05-07 21:16 48.46682 12.29721 34246 ft 504 kts 104°
2026-05-07 21:16 48.45898 12.34863 34387 ft 503 kts 104°
2026-05-07 21:16 48.45102 12.40067 34529 ft 503 kts 104°
2026-05-07 21:17 48.44317 12.45192 34655 ft 503 kts 104°
2026-05-07 21:17 48.43530 12.50321 34778 ft 502 kts 104°
2026-05-07 21:17 48.42740 12.55444 34883 ft 502 kts 104°
2026-05-07 21:17 48.41949 12.60564 35002 ft 502 kts 104°
2026-05-07 21:18 48.40374 12.70828 35072 ft 506 kts 102°
2026-05-07 21:18 48.39918 12.81413 35078 ft 507 kts 89°
2026-05-07 21:19 48.40160 12.92019 35081 ft 507 kts 87°
2026-05-07 21:19 48.40506 13.02606 35074 ft 507 kts 87°
2026-05-07 21:20 48.40835 13.13205 35074 ft 507 kts 88°
2026-05-07 21:20 48.41134 13.23816 35078 ft 507 kts 88°
2026-05-07 21:21 48.40436 13.34321 35074 ft 504 kts 107°
2026-05-07 21:21 48.38366 13.44399 35078 ft 504 kts 110°
2026-05-07 21:22 48.36062 13.54355 35076 ft 504 kts 111°
2026-05-07 21:22 48.33730 13.64292 35075 ft 504 kts 111°
2026-05-07 21:23 48.31415 13.74237 35079 ft 504 kts 111°
2026-05-07 21:23 48.29104 13.84188 35078 ft 504 kts 111°
2026-05-07 21:24 48.26790 13.94122 35075 ft 504 kts 111°
2026-05-07 21:24 48.24467 14.04045 35072 ft 503 kts 111°
2026-05-07 21:25 48.22137 14.13950 35076 ft 504 kts 111°
2026-05-07 21:25 48.19797 14.23849 35076 ft 504 kts 111°
2026-05-07 21:26 48.17446 14.33750 35073 ft 505 kts 112°
2026-05-07 21:26 48.15077 14.43680 35074 ft 506 kts 112°
2026-05-07 21:27 48.12686 14.53660 35072 ft 506 kts 112°
2026-05-07 21:27 48.10302 14.63562 35068 ft 506 kts 112°
2026-05-07 21:28 48.07926 14.73394 35070 ft 505 kts 112°
2026-05-07 21:28 48.05512 14.83331 35077 ft 505 kts 112°
2026-05-07 21:29 48.03122 14.93128 35074 ft 505 kts 112°
2026-05-07 21:29 48.00691 15.03049 35060 ft 505 kts 113°
2026-05-07 21:30 47.98271 15.12883 35074 ft 504 kts 113°
2026-05-07 21:30 47.95849 15.22684 35087 ft 504 kts 113°
2026-05-07 21:31 47.93825 15.30837 35087 ft 504 kts 113°
2026-05-07 21:31 47.91385 15.40627 35070 ft 504 kts 113°
2026-05-07 21:32 47.88942 15.50394 35077 ft 502 kts 114°
2026-05-07 21:32 47.86493 15.60136 35069 ft 502 kts 114°
2026-05-07 21:33 47.84037 15.69861 35075 ft 502 kts 114°
2026-05-07 21:33 47.81574 15.79577 35072 ft 502 kts 114°
2026-05-07 21:34 47.79084 15.89356 35072 ft 502 kts 114°
2026-05-07 21:34 47.76604 15.99055 35068 ft 502 kts 114°
2026-05-07 21:35 47.74114 16.08755 35066 ft 502 kts 114°
2026-05-07 21:35 47.71618 16.18433 35047 ft 502 kts 115°
2026-05-07 21:36 47.69111 16.28115 35061 ft 503 kts 115°
2026-05-07 21:36 47.66595 16.37790 35054 ft 503 kts 115°
2026-05-07 21:37 47.64071 16.47456 35056 ft 503 kts 115°
2026-05-07 21:37 47.61538 16.57115 35055 ft 502 kts 115°
2026-05-07 21:38 47.58998 16.66760 35050 ft 502 kts 115°
2026-05-07 21:38 47.56448 16.76405 35050 ft 502 kts 115°
2026-05-07 21:39 47.53849 16.85997 35051 ft 502 kts 116°
2026-05-07 21:39 47.51205 16.95560 35049 ft 502 kts 116°
2026-05-07 21:40 47.48552 17.05138 35058 ft 503 kts 116°
2026-05-07 21:40 47.45898 17.14717 35051 ft 503 kts 116°
2026-05-07 21:41 47.43240 17.24288 35050 ft 503 kts 116°